<?xml version="1.0" encoding="UTF-8" standalone="no" ?>
<gpx xmlns="http://www.topografix.com/GPX/1/1" xmlns:xsi="http://www.w3.org/2001/XMLSchema-instance" xsi:schemaLocation="http://www.topografix.com/GPX/1/1 http://www.topografix.com/GPX/1/1/gpx.xsd" version="1.1" creator="VisuGPX - https://www.visugpx.com">
  <metadata>
    <name>LePouliguen_LeCroisic_10-20km</name>
    <desc><![CDATA[gnerando idor:14387918_14388012_14411987_14458844_14458865]]></desc>
  </metadata>
  <trk>
    <name><![CDATA[LePouliguen_Batz_10km-14411987]]></name>
    <extensions>
      <line xmlns="http://www.topografix.com/GPX/gpx_style/0/2">
        <color>FF0000</color>
        <width>4</width>
      </line>
    </extensions>
    <trkseg>
      <trkpt lat="47.28264" lon="-2.4338">
        <ele>3</ele>
        <time>2023-11-04T19:24:38Z</time>
      </trkpt>
      <trkpt lat="47.28162" lon="-2.43243">
        <ele>4</ele>
        <time>2023-11-04T19:27:42Z</time>
      </trkpt>
      <trkpt lat="47.28092" lon="-2.43131">
        <ele>4</ele>
        <time>2023-11-04T19:30:00Z</time>
      </trkpt>
      <trkpt lat="47.28089" lon="-2.42903">
        <ele>6</ele>
        <time>2023-11-04T19:33:26Z</time>
      </trkpt>
      <trkpt lat="47.28039" lon="-2.428">
        <ele>5</ele>
        <time>2023-11-04T19:35:21Z</time>
      </trkpt>
      <trkpt lat="47.27833" lon="-2.42818">
        <ele>4</ele>
        <time>2023-11-04T19:39:57Z</time>
      </trkpt>
      <trkpt lat="47.27667" lon="-2.42783">
        <ele>4</ele>
        <time>2023-11-04T19:43:40Z</time>
      </trkpt>
      <trkpt lat="47.27381" lon="-2.4241">
        <ele>6</ele>
        <time>2023-11-04T19:52:10Z</time>
      </trkpt>
      <trkpt lat="47.27192" lon="-2.42517">
        <ele>7</ele>
        <time>2023-11-04T19:56:40Z</time>
      </trkpt>
      <trkpt lat="47.27029" lon="-2.42487">
        <ele>6</ele>
        <time>2023-11-04T20:00:19Z</time>
      </trkpt>
      <trkpt lat="47.26939" lon="-2.4232">
        <ele>1.5</ele>
        <time>2023-11-04T20:03:32Z</time>
      </trkpt>
      <trkpt lat="47.2688" lon="-2.42341">
        <ele>2</ele>
        <time>2023-11-04T20:04:53Z</time>
      </trkpt>
      <trkpt lat="47.26578" lon="-2.42152">
        <ele>6</ele>
        <time>2023-11-04T20:12:11Z</time>
      </trkpt>
      <trkpt lat="47.26519" lon="-2.41951">
        <ele>4</ele>
        <time>2023-11-04T20:15:30Z</time>
      </trkpt>
      <trkpt lat="47.26327" lon="-2.41908">
        <ele>5</ele>
        <time>2023-11-04T20:19:49Z</time>
      </trkpt>
      <trkpt lat="47.26155" lon="-2.4168">
        <ele>5</ele>
        <time>2023-11-04T20:24:57Z</time>
      </trkpt>
      <trkpt lat="47.2601" lon="-2.41998">
        <ele>12</ele>
        <time>2023-11-04T20:30:44Z</time>
      </trkpt>
      <trkpt lat="47.25876" lon="-2.42058">
        <ele>5</ele>
        <time>2023-11-04T20:33:51Z</time>
      </trkpt>
      <trkpt lat="47.25981" lon="-2.42461">
        <ele>6</ele>
        <time>2023-11-04T20:40:22Z</time>
      </trkpt>
      <trkpt lat="47.25975" lon="-2.42861">
        <ele>7</ele>
        <time>2023-11-04T20:46:25Z</time>
      </trkpt>
      <trkpt lat="47.2594" lon="-2.43015">
        <ele>8</ele>
        <time>2023-11-04T20:48:52Z</time>
      </trkpt>
      <trkpt lat="47.2582" lon="-2.43161">
        <ele>3</ele>
        <time>2023-11-04T20:52:19Z</time>
      </trkpt>
      <trkpt lat="47.25931" lon="-2.43238">
        <ele>5</ele>
        <time>2023-11-04T20:55:03Z</time>
      </trkpt>
      <trkpt lat="47.26071" lon="-2.4365">
        <ele>6</ele>
        <time>2023-11-04T21:02:00Z</time>
      </trkpt>
      <trkpt lat="47.26065" lon="-2.44024">
        <ele>7</ele>
        <time>2023-11-04T21:07:39Z</time>
      </trkpt>
      <trkpt lat="47.26193" lon="-2.44478">
        <ele>7</ele>
        <time>2023-11-04T21:15:04Z</time>
      </trkpt>
      <trkpt lat="47.26222" lon="-2.44779">
        <ele>5</ele>
        <time>2023-11-04T21:19:40Z</time>
      </trkpt>
      <trkpt lat="47.26356" lon="-2.44929">
        <ele>7</ele>
        <time>2023-11-04T21:23:24Z</time>
      </trkpt>
      <trkpt lat="47.26403" lon="-2.45024">
        <ele>8</ele>
        <time>2023-11-04T21:25:11Z</time>
      </trkpt>
      <trkpt lat="47.26295" lon="-2.45092">
        <ele>3</ele>
        <time>2023-11-04T21:27:48Z</time>
      </trkpt>
      <trkpt lat="47.26412" lon="-2.45281">
        <ele>3</ele>
        <time>2023-11-04T21:31:39Z</time>
      </trkpt>
      <trkpt lat="47.26566" lon="-2.45298">
        <ele>7</ele>
        <time>2023-11-04T21:35:05Z</time>
      </trkpt>
      <trkpt lat="47.26814" lon="-2.45521">
        <ele>7</ele>
        <time>2023-11-04T21:41:33Z</time>
      </trkpt>
      <trkpt lat="47.26799" lon="-2.45611">
        <ele>5</ele>
        <time>2023-11-04T21:42:57Z</time>
      </trkpt>
      <trkpt lat="47.26866" lon="-2.45702">
        <ele>5</ele>
        <time>2023-11-04T21:44:58Z</time>
      </trkpt>
      <trkpt lat="47.26907" lon="-2.45886">
        <ele>4</ele>
        <time>2023-11-04T21:47:54Z</time>
      </trkpt>
      <trkpt lat="47.26971" lon="-2.45985">
        <ele>5</ele>
        <time>2023-11-04T21:49:58Z</time>
      </trkpt>
      <trkpt lat="47.27032" lon="-2.46182">
        <ele>6</ele>
        <time>2023-11-04T21:53:14Z</time>
      </trkpt>
      <trkpt lat="47.26956" lon="-2.46294">
        <ele>2</ele>
        <time>2023-11-04T21:55:37Z</time>
      </trkpt>
      <trkpt lat="47.27012" lon="-2.46478">
        <ele>3</ele>
        <time>2023-11-04T21:58:40Z</time>
      </trkpt>
      <trkpt lat="47.27076" lon="-2.46508">
        <ele>5</ele>
        <time>2023-11-04T22:00:09Z</time>
      </trkpt>
      <trkpt lat="47.27099" lon="-2.46586">
        <ele>6</ele>
        <time>2023-11-04T22:01:26Z</time>
      </trkpt>
      <trkpt lat="47.26968" lon="-2.46766">
        <ele>5</ele>
        <time>2023-11-04T22:05:25Z</time>
      </trkpt>
      <trkpt lat="47.26988" lon="-2.47139">
        <ele>6</ele>
        <time>2023-11-04T22:11:04Z</time>
      </trkpt>
      <trkpt lat="47.27052" lon="-2.47148">
        <ele>11</ele>
        <time>2023-11-04T22:12:30Z</time>
      </trkpt>
      <trkpt lat="47.27125" lon="-2.47538">
        <ele>6</ele>
        <time>2023-11-04T22:18:36Z</time>
      </trkpt>
      <trkpt lat="47.27215" lon="-2.47779">
        <ele>6</ele>
        <time>2023-11-04T22:22:45Z</time>
      </trkpt>
      <trkpt lat="47.27288" lon="-2.47903">
        <ele>5</ele>
        <time>2023-11-04T22:25:14Z</time>
      </trkpt>
      <trkpt lat="47.27265" lon="-2.48062">
        <ele>5</ele>
        <time>2023-11-04T22:27:41Z</time>
      </trkpt>
      <trkpt lat="47.27408" lon="-2.48118">
        <ele>10</ele>
        <time>2023-11-04T22:30:59Z</time>
      </trkpt>
      <trkpt lat="47.28063" lon="-2.47926">
        <ele>6</ele>
        <time>2023-11-04T22:45:50Z</time>
      </trkpt>
      <trkpt lat="47.28066" lon="-2.47995">
        <ele>6</ele>
        <time>2023-11-04T22:46:52Z</time>
      </trkpt>
    </trkseg>
  </trk>
</gpx>